Wind_Speed
13 15 16 18 19 19 21 21 23 24 24 24 23 21 19 17 17 15 15 13 11 13
12 13 14 16 17 18 19 18 19 22 22 22 22 20 19 18 18 17 15 14 12 9
11 12 13 14 15 16 16 16 17 19 20 20 20 20 19 19 19 18 17 16 15 9
11 10 10 12 14 14 15 15 16 18 19 20 19 18 17 18 20 22 21 21 22 16
9 8 9 10 10 11 12 13 14 16 18 20 20 19 17 17 19 21 26 28 28 25
7 6 7 7 8 9 10 10 12 13 16 18 20 20 19 18 19 19 21 26 30 31
6 5 4 4 5 7 8 9 10 12 13 15 17 20 19 18 19 20 22 24 26 28
5 4 2 2 4 7 8 8 9 10 10 13 14 19 19 19 19 20 22 25 27 27
5 4 2 1 3 6 7 8 8 8 9 11 14 16 17 18 19 21 23 25 26 27
7 6 5 3 3 4 5 7 7 9 8 10 13 14 15 16 17 19 22 23 24 26
9 9 7 5 4 2 3 4 6 8 8 9 12 13 14 14 15 17 20 23 22 23
11 10 9 7 5 3 2 3 5 7 7 8 9 11 12 12 14 16 19 20 21 21
12 11 9 8 6 4 3 3 5 4 5 7 8 7 8 10 12 14 17 18 20 20
12 11 11 9 7 4 1 1 3 3 3 3 5 7 7 9 11 14 14 16 18 20
Wind_Direction
333 336 342 349 354 355 358 6 4 4 6 8 7 5 1 357 351 344 334 335 314 281
330 339 347 353 356 358 1 7 9 6 4 12 13 14 12 11 6 358 351 347 338 317
330 342 351 356 357 1 7 12 13 11 12 13 16 16 18 23 21 15 14 12 7 340
328 337 350 353 359 3 11 12 15 15 20 22 21 19 23 28 35 34 36 36 35 25
314 328 345 349 2 7 13 16 16 19 23 27 27 26 25 30 35 41 44 45 44 41
297 316 334 345 5 14 25 19 23 23 27 32 33 32 32 34 39 42 44 51 50 47
287 299 313 355 13 30 36 31 28 30 36 39 40 42 40 39 46 48 50 52 54 55
262 268 281 27 35 44 42 39 35 35 40 46 46 48 46 49 50 54 54 55 55 55
242 246 205 163 70 57 49 48 47 46 50 54 52 48 47 48 55 57 58 58 60 60
227 220 206 186 97 72 58 53 57 55 55 59 60 53 48 45 51 58 61 60 61 61
214 211 206 192 158 120 76 64 60 61 57 55 57 50 47 46 46 55 60 61 58 62
205 206 205 193 187 163 114 81 63 57 54 55 62 51 46 40 47 50 55 59 57 56
203 202 198 194 194 184 117 84 73 63 57 53 55 59 58 48 50 54 57 56 58 59
201 195 190 191 198 202 172 68 63 55 53 50 45 55 54 53 50 52 56 56 57 55
Height
1499 1496 1493 1490 1486 1482 1478 1474 1472 1467 1462 1456 1450 1444 1439 1434 1430 1426 1421 1416 1412 1409
1497 1494 1491 1488 1485 1482 1478 1475 1471 1468 1463 1457 1451 1446 1441 1435 1430 1425 1420 1415 1410 1407
1495 1493 1491 1488 1485 1482 1478 1475 1472 1469 1463 1459 1453 1448 1443 1437 1432 1427 1421 1415 1409 1405
1493 1491 1489 1487 1484 1482 1477 1475 1472 1469 1464 1460 1455 1451 1446 1440 1434 1429 1423 1416 1410 1405
1492 1489 1487 1485 1483 1481 1477 1475 1474 1470 1466 1461 1458 1454 1449 1443 1437 1432 1426 1420 1414 1408
1489 1487 1485 1486 1483 1480 1477 1476 1474 1471 1468 1464 1460 1456 1451 1447 1441 1436 1431 1424 1419 1414
1487 1487 1485 1485 1484 1480 1478 1477 1475 1473 1469 1466 1463 1459 1454 1450 1445 1441 1436 1430 1424 1420
1485 1485 1485 1485 1482 1480 1479 1478 1476 1474 1471 1468 1466 1461 1458 1454 1450 1445 1440 1436 1430 1425
1484 1484 1484 1484 1481 1480 1480 1479 1477 1475 1473 1470 1468 1465 1462 1458 1454 1450 1445 1441 1437 1433
1483 1482 1483 1483 1481 1481 1481 1480 1479 1476 1475 1472 1470 1468 1465 1462 1458 1454 1450 1446 1442 1439
1481 1481 1482 1481 1482 1482 1482 1481 1480 1478 1477 1475 1472 1471 1469 1466 1463 1459 1454 1451 1448 1444
1479 1480 1480 1481 1482 1483 1483 1482 1481 1479 1478 1477 1474 1473 1471 1469 1466 1463 1459 1456 1453 1450
1478 1479 1479 1480 1481 1483 1483 1483 1481 1480 1480 1478 1476 1474 1473 1471 1469 1466 1463 1461 1458 1455
1476 1477 1478 1479 1481 1482 1483 1483 1482 1481 1481 1480 1478 1476 1475 1473 1472 1469 1467 1465 1462 1460